Location: Newark
(44.3681°N, 100.3364°W)
Time: 15:32:28
(UTC+00:00)

Vanguard 1 - Pass Details

Date: 01 March 2020
Orbit: 649 x 3834 km, 34.2° (Epoch: 30 March)

Event Time Altitude Azimuth Distance (km) Brightness Sun altitude
Rises 20:06:40 0° 279° (W) 6,950 14.5 35.9°
Reaches altitude 10° 20:15:07 10° 259° (W) 5,150 14.3 35.3°
Maximum altitude 20:20:47 13° 235° (SW) 4,246 14.4 34.8°
Drops below altitude 10° 20:25:22 10° 210° (SSW) 3,987 14.6 34.5°
Sets 20:30:13 0° 184° (S) 4,371 14.2 34.0°
